Content
SEND FEEDBACK

Daily
Averages
Monthly
Summary
Italy

TURIN, ITALY


Home > Europe > Italy
Elevation: 941 feet     Latitude: 45 13N     Longitude: 007 39E

WEATHER
 
SELECT A DAY
Number of Records: 310,175;   Date Range: 7/1/96 - 10/29/14
 
SHARE

PRINT THIS DATA

[ ← Previous Day ]
WEATHER ALMANAC - SEPTEMBER 15, 2013
[ Next Day → ]
[ °C ]   °F
Weather ElementAverageHighLow
Temperature60.8 °F64.4 °F (12:50 am)57.2 °F (11:20 pm)
Dewpoint56.3 °F59 °F (10:50 am)53.6 °F (9:50 pm)
Humidity85.4 %100 % (1:20 pm)73 % (12:50 am)
Barometer29.90 in29.98 in (12:50 am)29.83 in (5:20 pm)
Wind Speed6 mph10.4 mph (5:50 pm)
Weather ElementAverage
Visibility5.2 mi
Wind DirectionSSE (171.9 °)

Weather ElementTotal
Precipitation---
Heating Degree Days4.2 (Base 65)
Growing Degree Days10.8 (Base 50)
Averaged from 46 records on September 15, 2013
WEATHER CONDITIONS BREAKOUT
WIND DIRECTION BREAKOUT
WEATHER BY HOUR - SEPTEMBER 15, 2013
[ °C ]   °F
Local TimeTemperatureDewpointHumidityBarometerVisibilityWind DirectionWind SpeedGust SpeedPrecipitationEventsConditions
12:50 AM64.4 °F55.4 °F73 %29.98 in6.2 miNorth (360°)6.9 mphScattered Clouds
1:20 AM64.4 °F55.4 °F73 %29.98 in6.2 miNorth (10°)5.8 mphScattered Clouds
1:50 AM62.6 °F55.4 °F77 %29.98 in6.2 miNE (50°)4.6 mphMostly Cloudy
2:20 AM62.6 °F57.2 °F82 %29.98 in6.2 miNorth (10°)5.8 mphMostly Cloudy
2:50 AM62.6 °F55.4 °F77 %29.98 in6.2 miNE (50°)4.6 mphMostly Cloudy
3:20 AM62.6 °F57.2 °F82 %29.98 in6.2 miNorth (10°)5.8 mphMostly Cloudy
3:50 AM62.6 °F55.4 °F77 %29.98 in6.2 miNE (50°)4.6 mphMostly Cloudy
4:50 AM62.6 °F55.4 °F77 %29.98 in6.2 miNE (50°)4.6 mphMostly Cloudy
5:20 AM62.6 °F57.2 °F82 %29.98 in6.2 miNorth (10°)5.8 mphMostly Cloudy
5:50 AM62.6 °F55.4 °F77 %29.98 in6.2 miNW (320°)4.6 mphMostly Cloudy
6:20 AM62.6 °F57.2 °F82 %29.98 in6.2 miNorth (10°)5.8 mphMostly Cloudy
6:50 AM62.6 °F55.4 °F77 %29.95 in6.2 miNW (320°)4.6 mphMostly Cloudy
7:20 AM60.8 °F55.4 °F82 %29.92 in6.2 miNorth (350°)5.8 mphRainLight Rain
7:50 AM60.8 °F55.4 °F82 %29.92 in6.2 miNorth (360°)3.5 mphRainRain
8:20 AM60.8 °F55.4 °F82 %29.92 in6.2 miNNE (30°)4.6 mphRainLight Rain
8:50 AM60.8 °F55.4 °F82 %29.92 in6.2 miNorth (10°)8.1 mphRainLight Rain
9:20 AM60.8 °F55.4 °F82 %29.92 in6.2 miNorth (10°)6.9 mphRainRain
9:50 AM60.8 °F55.4 °F82 %29.92 in6.2 miNorth (360°)6.9 mphRainLight Rain
10:20 AM60.8 °F57.2 °F88 %29.92 in1.7 miNorth (360°)6.9 mphRainRain
10:50 AM60.8 °F59.0 °F94 %29.89 in3.1 miNNE (20°)9.2 mphRainRain
11:20 AM60.8 °F57.2 °F88 %29.89 in5.0 miNNE (30°)6.9 mphRainLight Rain
11:50 AM59.0 °F57.2 °F94 %29.89 in3.7 miENE (60°)3.5 mphRainRain
12:20 PM59.0 °F57.2 °F94 %29.89 in2.5 miNE (50°)3.5 mphRainLight Rain
12:50 PM59.0 °F57.2 °F94 %29.89 in3.1 miNorth (360°)6.9 mphRainLight Rain
1:20 PM59.0 °F59.0 °F100 %29.89 in3.1 miNNW (330°)5.8 mphRainLight Rain
1:50 PM59.0 °F57.2 °F94 %29.89 in3.1 miNNE (20°)9.2 mphRainLight Rain
2:20 PM60.8 °F57.2 °F88 %29.89 in3.1 miNorth (360°)9.2 mphMostly Cloudy
2:50 PM60.8 °F57.2 °F88 %29.86 in3.1 miNorth (356°)9.2 mphMostly Cloudy
3:20 PM60.8 °F57.2 °F88 %29.86 in3.1 miNorth (10°)8.1 mphMostly Cloudy
3:50 PM60.8 °F57.2 °F88 %29.86 in3.1 miNorth (360°)8.1 mphMostly Cloudy
4:20 PM60.8 °F57.2 °F88 %29.86 in3.1 miNorth (10°)5.8 mphMostly Cloudy
4:50 PM60.8 °F57.2 °F88 %29.86 in3.7 miNorth (10°)9.2 mphOvercast
5:20 PM59.0 °F57.2 °F94 %29.83 in5.0 miNorth (360°)9.2 mphOvercast
5:50 PM60.8 °F57.2 °F88 %29.83 in6.2 miNorth (350°)10.4 mphMostly Cloudy
6:20 PM60.8 °F57.2 °F88 %29.83 in6.2 miNorth (360°)5.8 mphMostly Cloudy
6:50 PM60.8 °F57.2 °F88 %29.83 in6.2 miNE (40°)4.6 mphMostly Cloudy
7:20 PM60.8 °F57.2 °F88 %29.83 in6.2 miNorth (350°)5.8 mphMostly Cloudy
7:50 PM60.8 °F57.2 °F88 %29.86 in6.2 miNNE (20°)5.8 mphRainLight Rain
8:20 PM60.8 °F57.2 °F88 %29.86 in6.2 miNNW (330°)4.6 mphRainLight Rain
8:50 PM59.0 °F55.4 °F88 %29.86 in6.2 miWNW (290°)4.6 mphMostly Cloudy
9:20 PM60.8 °F55.4 °F82 %29.86 in6.2 miVariable2.3 mphMostly Cloudy
9:50 PM59.0 °F53.6 °F82 %29.86 in6.2 miVariable2.3 mphMostly Cloudy
10:20 PM59.0 °F55.4 °F88 %29.86 in6.2 miWest (270°)3.5 mphMostly Cloudy
10:50 PM59.0 °F55.4 °F88 %29.86 in6.2 miSSW (210°)3.5 mphMostly Cloudy
11:20 PM57.2 °F53.6 °F88 %29.83 in6.2 miWNW (300°)6.9 mphPartly Cloudy
11:50 PM57.2 °F53.6 °F88 %29.83 inNW (320°)5.8 mphClear
Hourly data recorded from LIMF, located miles away from Turin, Italy







STORIES FROM OUR PARTNERS